Flag for Poland Weather past 2 weeks in Bydgoszcz, Poland

Now
65 °F

Sprinkles. Overcast.


Feels Like: 65 °F
Forecast: 57 / 66 °F
Wind: 2 mph from Southeast

Location: Torun

Current Time: Jul 8, 2015 at 4:59:22 AM

Latest Report: Jul 8, 2015 at 4:00 AM


Visibility: 3 mi

Pressure: 29.56 "Hg

Humidity: 94%

Dew point: 64 °F

Location of BydgoszczLocation

Historic Weather in Bydgoszcz — Graph

°F

Bydgoszcz temperature yesterday

Maximum temperature yesterday: 85 °F (at 6:00 PM)
Minimum temperature yesterday: 52 °F (at 4:00 AM)
Average temperature yesterday: 72 °F

Past Weeks' High & Low Weather Summary

 TemperatureHumidityPressure
High95 °F (Jul 5, 4:00 PM)98% (Jul 8, 3:00 AM)30.41 "Hg (Jul 8, 3:00 AM)
Low46 °F (Jun 25, 5:00 AM)19% (Jul 5, 4:00 PM)29.64 "Hg (Jun 23, 4:00 AM)
Average67 °F62%30.09 "Hg
* Reported Jun 23 3:00 AM — Jul 8 3:00 AM, Bydgoszcz, Weather by CustomWeather, © 2015

Note: Actual official high and low records may vary slightly from our data, if they occured in-between our weather recording intervals... More about our weather records

Advertising

Bydgoszcz weather history for previous 24 hours

 ConditionsComfort  
Time TempWeatherWind HumidityBarometerVisibility
3:00 AM
Wed, Jul 8
64 °FRain. Overcast.3 mph98%29.66 "Hg3 mi
2:00 AM69 °FThundershowers. Overcast.1 mph67%29.67 "Hg9 mi
1:00 AM73 °FOvercast.2 mph46%29.66 "Hg31 mi
12:00 AM70 °FOvercast.1 mph53%29.68 "Hg16 mi
11:00 PM
Tue, Jul 7
70 °FPassing clouds.2 mph54%29.71 "Hg16 mi
10:00 PM69 °FPassing clouds.No wind54%29.75 "Hg19 mi
9:00 PM75 °FPassing clouds.No wind43%29.75 "Hg31 mi
8:00 PM82 °FPassing clouds.1 mph30%29.78 "Hg31 mi
7:00 PM85 °FPassing clouds.2 mph26%29.81 "Hg28 mi
6:00 PM85 °FPassing clouds.3 mph26%29.83 "Hg25 mi
5:00 PM85 °FPassing clouds.3 mph26%29.86 "Hg22 mi
4:00 PM85 °FSunny.3 mph26%29.88 "Hg28 mi
3:00 PM84 °FSunny.3 mph29%29.90 "Hg22 mi
2:00 PM82 °FSunny.5 mph30%29.93 "Hg25 mi
1:00 PM80 °FSunny.3 mph30%29.95 "Hg22 mi
12:00 PM79 °FPassing clouds.3 mph32%29.96 "Hg22 mi
11:00 AM77 °FSunny.3 mph35%29.99 "Hg22 mi
10:00 AM75 °FPassing clouds.5 mph40%30.00 "Hg17 mi
9:00 AM72 °FSunny.5 mph51%30.02 "Hg22 mi
8:00 AM67 °FSunny.3 mph64%30.03 "Hg22 mi
7:00 AM64 °FPassing clouds.3 mph67%30.04 "Hg22 mi
6:00 AM56 °FPassing clouds.1 mph94%30.05 "Hg22 mi
4:00 AM52 °FFog.No wind93%30.06 "Hg4 mi
Weather by CustomWeather, © 2015

See weather overviewHow to use our weather pages